Regional Weather Roundup
Issued by NWS Northern Indiana

Home | Current Version | Previous Version | Graphics & Text | Print | Product List | Glossary On
Versions: 1 2 3 4 5 6 7 8 9 10 11 12 13 14 15 16 17 18 19 20 21 22 23 24 25 26 27 28 29 30 31 32 33 34 35 36 37 38 39 40 41 42 43 44 45 46 47 48 49 50
000
ASUS43 KIWX 201700
RWRIWX

KIWX WEATHER ROUNDUP
NATIONAL WEATHER SERVICE NORTHERN INDIANA
100 PM EDT MON OCT 20 2014

NOTE: "FAIR" INDICATES FEW OR NO CLOUDS BELOW 12,000 FEET WITH NO
SIGNIFICANT WEATHER AND/OR OBSTRUCTIONS TO VISIBILITY.

* THESE STATIONS ARE NOT UNDER NWS QUALITY CONTROL. THEY ALSO MAY NOT
  REPORT WEATHER SUCH AS PRECIPITATION OR FOG.

INZ001>027-201800-
NORTHERN INDIANA

CITY           SKY/WX    TMP DP  RH WIND       PRES   REMARKS
GARY*          MOSUNNY   61  46  59 N10       29.85
SOUTH BEND     PTSUNNY   60  48  64 VRB5      29.84S
ELKHART*       PTSUNNY   57  48  72 W7        29.83S
GOSHEN         PTSUNNY   58  49  72 SW8       29.82F
ANGOLA*        CLOUDY    50  39  66 SW7       29.82F
FORT WAYNE     CLOUDY    54  49  83 SW9       29.86F

$$
INZ028>050-201800-
CENTRAL INDIANA

CITY           SKY/WX    TMP DP  RH WIND       PRES   REMARKS
LAFAYETTE      SUNNY     61  50  67 W12       29.86F
KOKOMO*        CLOUDY    57 N/A N/A W13       29.86F
MUNCIE*        PTSUNNY   54  51  90 W7        29.88R
INDIANAPOLIS   LGT RAIN  56  49  77 SW15      29.89R

$$
MIZ043>046-050>051-056>058-064>065-071>073-077>080-201800-
SOUTHWEST LOWER MICHIGAN

CITY           SKY/WX    TMP DP  RH WIND       PRES   REMARKS
BATTLE CREEK   CLOUDY    52  46  80 SW10      29.83S
BENTON HARBOR  CLOUDY    54  48  80 W9        29.83S
COLDWATER*     LGT RAIN  52  50  94 W7        29.82R
HILLSDALE*     RAIN      52  51  99 NW5       29.80F
HOLLAND        MOSUNNY   59  50  72 W6        29.82S
GRAND RAPIDS   PTSUNNY   57  49  74 SW10      29.80F
KALAMAZOO      CLOUDY    53  48  83 SW7       29.83S
STURGIS*       PTSUNNY   54  50  87 SW10      29.81F
THREE RIVERS*  CLOUDY    55  49  82 W6        29.83R

$$
OHZ001>008-015>018-024>025-201800-
NORTHWEST OHIO

CITY           SKY/WX    TMP DP  RH WIND       PRES   REMARKS
DEFIANCE       RAIN      52  48  86 S6        29.85F FOG
FINDLAY        CLOUDY    57  47  69 SW14      29.86S
TOLEDO EXPRESS CLOUDY    54  46  74 SW13      29.84S
TOLEDO METCALF CLOUDY    57  46  66 SW18      29.85S
LIMA           CLOUDY    55  47  74 SW12      29.88R

$$
AND FOR LAKE MICHIGAN COASTAL AND OPEN LAKE BUOY OBSERVATIONS

STATION/POSITION TEMP    WIND        PRES    VSBY  WAVE
                 AIR SEA DIR/SP/G                  HT/PER
                 (F)     (DEG/KT/KT) (MB)    (MI)  (FT/S)
CALUMET HARBOR    58     340/  7/  9 1009.7R
MICHIGAN CITY     52     240/ 11/ 13   N/A
SAINT JOSEPH      55                 1010.8R
SOUTH LAKE BUOY   54 55  320/ 10/ 14 1010.2S         2/ 5
MICHIGAN CITY CG     54                N/A       6   2
SAINT JOSEPH CG                      1010.4      6   3

$$
&&


USA.gov is the U.S. government's official web portal to all federal, state and local government web resources and services.